period_start,C,m1,H,J0,J1,J2,J3,J4,J5,JA,JB,JC,JD,JJ,JK,JN,#
2017-04-26 00:00:17,0.11,5.33,0.00,24.30,27.12,30.15,14.36,49.01,1016.95,2027.99,1881.46,1978.68,2247.65,599.83,593.28,59.53,0000 0000 0000 0000 000000
2017-04-26 00:05:19,0.11,5.34,0.00,24.32,27.15,30.16,14.37,49.00,1016.86,2027.97,1880.34,1977.77,2246.56,599.53,592.88,59.58,0000 0000 0000 0000 000000
2017-04-26 00:10:20,0.11,5.35,0.00,24.33,27.16,30.16,14.35,49.12,1016.78,2027.98,1879.07,1976.87,2245.46,599.59,593.07,59.63,0000 0000 0000 0000 000000
2017-04-26 00:15:21,0.13,5.35,0.00,24.33,27.18,30.17,14.47,49.10,1016.68,2027.92,1877.80,1975.97,2244.32,600.33,593.78,59.68,0000 0000 0000 0000 000000
2017-04-26 00:20:23,0.11,5.36,0.00,24.37,27.21,30.19,14.42,49.05,1016.64,2027.80,1876.60,1975.03,2243.20,600.28,593.72,59.73,0000 0000 0000 0000 000000
2017-04-26 00:25:24,0.12,5.37,0.00,24.39,27.22,30.19,14.48,49.20,1016.63,2027.59,1875.26,1974.10,2242.07,599.93,593.07,59.78,0000 0000 0000 0000 000000
2017-04-26 00:30:26,0.06,5.37,0.00,24.41,27.25,30.19,14.40,49.08,1016.63,2027.38,1874.09,1973.27,2241.06,599.98,593.11,59.84,0000 0000 0000 0000 000000
2017-04-26 00:35:27,0.10,5.37,0.00,24.44,27.27,30.20,14.40,49.15,1016.63,2027.05,1873.06,1972.36,2240.04,600.54,593.72,59.89,0000 0000 0000 0000 000000
2017-04-26 00:40:28,0.12,5.38,0.00,24.46,27.29,30.21,14.42,49.15,1016.63,2027.02,1871.89,1971.48,2239.03,599.86,593.03,59.94,0000 0000 0000 0000 000000
2017-04-26 00:45:29,0.13,5.39,0.00,24.46,27.31,30.22,14.39,49.25,1016.63,2027.01,1870.65,1970.56,2237.95,599.91,593.03,59.99,0000 0000 0000 0000 000000
2017-04-26 00:50:31,0.13,5.39,0.00,24.48,27.33,30.22,14.41,49.11,1016.62,2027.00,1869.29,1969.65,2236.80,599.91,592.98,60.04,0000 0000 0000 0000 000000
2017-04-26 00:55:32,0.08,5.40,0.00,24.50,27.35,30.23,14.38,49.25,1016.62,2027.00,1868.29,1968.93,2235.84,599.87,592.84,60.09,0000 0000 0000 0000 000000
2017-04-26 01:00:33,0.14,3.06,0.00,24.50,27.39,30.25,12.86,43.99,1016.62,2028.71,2583.26,2459.47,2806.07,535.93,529.68,0.01,0000 0000 0000 0000 000002
2017-04-26 01:05:34,0.12,0.00,0.00,24.51,27.40,30.25,14.43,49.63,1016.62,2030.66,3513.97,3099.93,3552.17,600.26,593.30,0.03,0000 0000 0000 0000 000000
2017-04-26 01:10:35,0.12,0.00,0.00,24.57,27.42,30.25,14.44,49.58,1016.62,2030.41,3510.71,3098.18,3550.15,599.97,592.86,0.08,0000 0000 0000 0000 000000
2017-04-26 01:15:36,0.11,0.00,0.00,24.54,27.43,30.26,14.46,49.48,1016.62,2030.08,3508.11,3096.64,3548.34,600.03,592.89,0.13,0000 0000 0000 0000 000000
2017-04-26 01:20:38,0.11,0.01,0.00,24.54,27.45,30.26,14.34,49.31,1016.62,2030.05,3505.56,3095.03,3546.36,599.72,592.64,0.18,0000 0000 0000 0000 000000
2017-04-26 01:25:39,0.11,0.02,0.00,24.52,27.47,30.27,14.41,49.41,1016.59,2030.02,3503.02,3093.42,3544.36,599.87,592.85,0.23,0000 0000 0000 0000 000000
2017-04-26 01:30:41,0.10,0.02,0.00,24.54,27.48,30.28,14.35,49.39,1016.45,2030.00,3500.66,3091.89,3542.50,599.83,592.68,0.28,0000 0000 0000 0000 000000
2017-04-26 01:35:42,0.09,0.03,0.00,24.56,27.50,30.29,14.35,49.35,1016.24,2030.00,3498.40,3090.48,3540.75,599.77,592.61,0.33,0000 0000 0000 0000 000000
2017-04-26 01:40:43,0.09,0.03,0.00,24.51,27.52,30.31,14.40,49.23,1016.25,2030.00,3496.19,3088.98,3538.97,600.24,592.89,0.38,0000 0000 0000 0000 000000
2017-04-26 01:45:45,0.09,0.03,0.00,24.48,27.52,30.32,14.40,49.51,1016.23,2030.00,3494.04,3087.61,3537.37,599.67,592.77,0.43,0000 0000 0000 0000 000000
2017-04-26 01:50:46,0.08,0.04,0.00,24.48,27.55,30.33,14.32,49.28,1016.15,2029.96,3491.90,3086.29,3535.68,599.72,592.56,0.48,0000 0000 0000 0000 000000
2017-04-26 01:55:47,0.08,0.04,0.00,24.47,27.55,30.33,14.41,49.37,1016.14,2029.97,3489.80,3084.92,3534.07,600.25,593.11,0.53,0000 0000 0000 0000 000000
2017-04-26 02:00:49,0.09,0.05,0.00,24.46,27.56,30.32,14.38,49.34,1016.14,2029.97,3487.78,3083.65,3532.56,599.71,592.49,0.58,0000 0000 0000 0000 000000
2017-04-26 02:05:50,0.07,0.05,0.00,24.46,27.57,30.33,14.46,49.35,1016.13,2029.96,3485.82,3082.43,3531.01,600.38,593.29,0.63,0000 0000 0000 0000 000000
2017-04-26 02:10:52,0.07,0.06,0.00,24.50,27.58,30.35,14.36,49.19,1016.13,2029.93,3484.03,3081.26,3529.68,599.48,592.23,0.68,0000 0000 0000 0000 000000
2017-04-26 02:15:53,0.07,0.06,0.00,24.47,27.60,30.35,14.43,49.30,1016.13,2029.92,3482.47,3080.22,3528.41,599.97,592.86,0.73,0000 0000 0000 0000 000000
2017-04-26 02:20:54,0.05,0.06,0.00,24.46,27.61,30.34,14.41,49.23,1016.13,2029.92,3481.01,3079.33,3527.34,600.23,593.06,0.78,0000 0000 0000 0000 000000
2017-04-26 02:25:56,0.06,0.07,0.00,24.47,27.62,30.36,14.30,49.10,1016.13,2029.89,3479.57,3078.37,3526.14,599.78,592.59,0.84,0000 0000 0000 0000 000000
2017-04-26 02:30:57,0.02,0.07,0.00,24.50,27.62,30.37,14.37,49.16,1016.13,2029.68,3478.23,3077.48,3525.09,599.74,592.49,0.89,0000 0000 0000 0000 000000
2017-04-26 02:35:58,0.03,0.07,0.00,24.51,27.65,30.37,14.40,49.10,1016.13,2029.54,3477.02,3076.77,3524.13,599.91,592.67,0.94,0000 0000 0000 0000 000000
2017-04-26 02:41:00,0.05,0.07,0.00,24.54,27.65,30.37,14.39,49.08,1016.12,2029.54,3475.87,3076.02,3523.19,600.22,592.83,0.99,0000 0000 0000 0000 000000
2017-04-26 02:46:01,0.03,0.07,0.00,24.57,27.66,30.38,14.38,49.05,1016.10,2029.23,3474.72,3075.17,3522.22,600.23,592.87,1.04,0000 0000 0000 0000 000000
2017-04-26 02:51:02,0.04,0.08,0.00,24.59,27.67,30.39,14.34,49.00,1016.06,2029.12,3473.62,3074.58,3521.38,600.22,592.80,1.09,0000 0000 0000 0000 000000
2017-04-26 02:56:04,0.03,0.08,0.00,24.60,27.68,30.40,14.31,49.06,1016.00,2029.05,3472.66,3073.98,3520.62,599.80,592.21,1.14,0000 0000 0000 0000 000000
2017-04-26 03:01:05,0.04,0.08,0.00,24.63,27.70,30.39,14.31,48.98,1015.95,2029.04,3471.63,3073.17,3519.79,599.73,592.12,1.19,0000 0000 0000 0000 000000
2017-04-26 03:06:06,0.04,0.08,0.00,24.65,27.70,30.40,14.34,49.08,1015.87,2029.01,3470.62,3072.62,3518.99,600.14,592.40,1.24,0000 0000 0000 0000 000000
2017-04-26 03:11:07,0.03,0.08,0.00,24.65,27.71,30.41,14.37,48.99,1015.72,2029.01,3469.62,3072.00,3518.13,599.89,592.09,1.29,0000 0000 0000 0000 000000
2017-04-26 03:16:08,0.05,0.09,0.00,24.68,27.72,30.41,14.41,49.21,1015.67,2029.00,3468.61,3071.24,3517.47,599.98,591.98,1.34,0000 0000 0000 0000 000000
2017-04-26 03:21:09,0.03,0.09,0.00,24.72,27.72,30.42,14.37,49.13,1015.65,2029.00,3467.60,3070.84,3516.68,600.26,592.37,1.39,0000 0000 0000 0000 000000
2017-04-26 03:26:10,0.04,0.09,0.00,24.76,27.73,30.40,14.42,49.15,1015.66,2029.00,3466.52,3070.05,3515.80,600.32,592.23,1.44,0000 0000 0000 0000 000000
2017-04-26 03:31:12,0.05,0.09,0.00,24.81,27.75,30.42,14.35,49.10,1015.66,2029.00,3465.48,3069.41,3514.91,600.09,591.94,1.49,0000 0000 0000 0000 000000
2017-04-26 03:36:13,0.03,0.09,0.00,24.85,27.75,30.42,14.35,48.87,1015.65,2028.99,3464.49,3068.81,3514.04,599.87,591.63,1.54,0000 0000 0000 0000 000000
2017-04-26 03:41:14,0.04,0.10,0.00,24.90,27.76,30.45,14.38,49.02,1015.65,2028.99,3463.40,3068.04,3513.14,600.23,591.90,1.59,0000 0000 0000 0000 000000
2017-04-26 03:46:16,0.04,0.10,0.00,24.94,27.77,30.47,14.35,49.03,1015.64,2028.99,3462.49,3067.53,3512.49,599.98,591.54,1.64,0000 0000 0000 0000 000000
2017-04-26 03:51:17,0.03,0.10,0.00,24.98,27.78,30.50,14.34,49.01,1015.64,2028.98,3461.47,3066.89,3511.64,600.32,591.83,1.69,0000 0000 0000 0000 000000
2017-04-26 03:56:18,0.03,0.10,0.00,25.03,27.80,30.56,14.35,48.90,1015.63,2028.97,3460.53,3066.10,3510.89,599.64,591.09,1.74,0000 0000 0000 0000 000000
2017-04-26 04:01:20,0.04,0.11,0.00,25.08,27.81,30.56,14.37,48.95,1015.62,2028.93,3459.56,3065.59,3510.01,600.23,591.47,1.79,0000 0000 0000 0000 000000
2017-04-26 04:06:21,0.01,0.11,0.00,25.12,27.82,30.62,14.40,48.88,1015.50,2028.62,3458.52,3064.98,3509.13,599.95,591.21,1.84,0000 0000 0000 0000 000000
2017-04-26 04:11:22,0.02,0.11,0.00,25.15,27.85,30.67,14.39,48.83,1015.41,2028.38,3457.58,3064.18,3508.35,600.55,591.47,1.89,0000 0000 0000 0000 000000
2017-04-26 04:16:24,0.03,0.11,0.00,25.19,27.87,30.70,14.29,48.81,1015.25,2028.24,3456.65,3063.75,3507.60,599.74,590.46,1.94,0000 0000 0000 0000 000000
2017-04-26 04:21:25,0.02,0.11,0.00,25.23,27.89,30.72,14.34,48.79,1015.17,2028.12,3455.75,3063.04,3506.73,599.99,590.75,1.99,0000 0000 0000 0000 000000
2017-04-26 04:26:26,0.04,0.11,0.00,25.27,27.91,30.75,14.36,48.88,1015.16,2028.04,3454.79,3062.25,3505.95,600.05,590.69,2.04,0000 0000 0000 0000 000000
2017-04-26 04:31:27,0.03,0.11,0.00,25.31,27.93,30.79,14.37,48.84,1015.16,2028.01,3453.83,3061.71,3505.07,599.84,590.43,2.09,0000 0000 0000 0000 000000
2017-04-26 04:36:28,0.04,0.12,0.00,25.36,27.96,30.81,14.29,48.79,1015.16,2028.00,3452.86,3061.01,3504.18,599.96,590.43,2.14,0000 0000 0000 0000 000000
2017-04-26 04:41:29,0.04,0.12,0.00,25.38,27.99,30.84,14.30,48.81,1015.16,2028.00,3451.95,3060.23,3503.40,599.93,590.33,2.19,0000 0000 0000 0000 000000
2017-04-26 04:46:30,0.03,0.12,0.00,25.41,28.01,30.85,14.22,48.78,1015.15,2028.00,3451.00,3059.80,3502.58,599.66,590.04,2.24,0000 0000 0000 0000 000000
2017-04-26 04:51:31,0.03,0.12,0.00,25.45,28.04,30.87,14.22,48.78,1015.15,2027.99,3450.03,3059.04,3501.83,599.75,589.92,2.29,0000 0000 0000 0000 000000
2017-04-26 04:56:32,0.04,0.13,0.00,25.49,28.06,30.91,14.26,48.67,1015.15,2027.98,3449.08,3058.42,3501.00,599.77,589.93,2.34,0000 0000 0000 0000 000000
2017-04-26 05:01:34,0.03,0.13,0.00,25.52,28.09,30.94,14.29,48.78,1015.15,2027.93,3448.06,3057.87,3500.09,599.72,589.95,2.39,0000 0000 0000 0000 000000
2017-04-26 05:06:35,-0.00,0.13,0.00,25.55,28.11,30.97,14.29,48.73,1015.15,2027.44,3447.04,3057.05,3499.15,599.93,590.00,2.44,0000 0000 0000 0000 000000
2017-04-26 05:11:36,0.03,0.13,0.00,25.57,28.14,30.98,14.26,48.73,1015.08,2027.16,3446.11,3056.43,3498.34,599.85,590.03,2.49,0000 0000 0000 0000 000000
2017-04-26 05:16:37,0.02,0.13,0.00,25.60,28.17,31.04,14.29,48.78,1015.03,2027.03,3445.18,3055.88,3497.63,599.87,589.76,2.54,0000 0000 0000 0000 000000
2017-04-26 05:21:39,0.04,0.13,0.00,25.63,28.19,31.05,14.28,48.69,1014.93,2027.00,3444.13,3055.06,3496.79,599.84,589.66,2.59,0000 0000 0000 0000 000000
2017-04-26 05:26:40,0.04,0.13,0.00,25.68,28.21,31.08,14.39,48.81,1015.00,2027.00,3443.36,3054.52,3496.01,600.19,589.94,2.64,0000 0000 0000 0000 000000
2017-04-26 05:31:41,0.03,0.14,0.00,25.71,28.24,31.11,14.22,48.69,1014.96,2026.99,3442.31,3053.90,3495.12,600.07,589.71,2.69,0000 0000 0000 0000 000000
2017-04-26 05:36:43,0.05,0.14,0.00,25.74,28.27,31.13,14.27,48.76,1014.71,2026.98,3441.36,3053.07,3494.24,600.00,589.47,2.74,0000 0000 0000 0000 000000
2017-04-26 05:41:44,0.04,0.14,0.00,25.77,28.30,31.16,14.22,48.67,1014.69,2026.97,3440.49,3052.59,3493.56,599.95,589.41,2.79,0000 0000 0000 0000 000000
2017-04-26 05:46:45,0.02,0.14,0.00,25.79,28.33,31.19,14.28,48.63,1014.69,2026.86,3439.55,3051.94,3492.71,600.05,589.41,2.84,0000 0000 0000 0000 000000
2017-04-26 05:51:47,-0.00,0.14,0.00,25.83,28.36,31.22,14.29,48.69,1014.68,2026.23,3438.48,3051.10,3491.90,599.68,589.03,2.89,0000 0000 0000 0000 000000
2017-04-26 05:56:48,0.03,0.14,0.00,25.84,28.38,31.26,14.29,48.78,1014.67,2026.07,3437.50,3050.48,3491.03,599.77,589.06,2.94,0000 0000 0000 0000 000000
2017-04-26 06:01:49,0.03,0.15,0.00,25.87,28.41,31.29,14.24,48.54,1014.67,2026.01,3436.53,3049.85,3490.12,599.73,588.90,2.99,0000 0000 0000 0000 000000
2017-04-26 06:06:51,0.05,0.15,0.00,25.91,28.44,31.30,14.29,48.52,1014.68,2026.00,3435.58,3049.05,3489.16,600.05,589.13,3.04,0000 0000 0000 0000 000000
2017-04-26 06:11:51,0.05,0.15,0.00,25.93,28.47,31.34,14.34,48.64,1014.67,2026.00,3434.54,3048.33,3488.28,600.35,589.38,3.09,0000 0000 0000 0000 000000
2017-04-26 06:16:53,0.02,0.15,0.00,25.96,28.50,31.38,14.25,48.62,1014.66,2025.98,3433.71,3047.89,3487.67,599.86,588.90,3.14,0000 0000 0000 0000 000000
2017-04-26 06:21:54,0.03,0.15,0.00,25.98,28.53,31.39,14.25,48.67,1014.66,2025.89,3432.75,3047.08,3486.76,600.09,589.05,3.19,0000 0000 0000 0000 000000
2017-04-26 06:26:55,0.03,0.16,0.00,26.00,28.56,31.43,14.29,48.63,1014.65,2025.79,3431.88,3046.49,3485.99,599.91,588.82,3.24,0000 0000 0000 0000 000000
2017-04-26 06:31:57,-0.01,0.16,0.00,26.02,28.59,31.46,14.29,48.67,1014.65,2025.44,3430.94,3045.91,3485.15,599.69,588.63,3.29,0000 0000 0000 0000 000000
2017-04-26 06:36:58,0.03,0.16,0.00,26.05,28.62,31.47,14.22,48.55,1014.65,2025.10,3430.00,3045.11,3484.28,599.80,588.63,3.35,0000 0000 0000 0000 000000
2017-04-26 06:41:59,0.04,0.16,0.00,26.08,28.65,31.52,14.30,48.69,1014.66,2025.06,3429.01,3044.55,3483.53,599.93,588.73,3.40,0000 0000 0000 0000 000000
2017-04-26 06:47:00,0.02,0.16,0.00,26.11,28.67,31.52,14.33,48.64,1014.65,2025.00,3428.01,3043.93,3482.72,600.38,589.05,3.45,0000 0000 0000 0000 000000
2017-04-26 06:52:02,0.05,0.16,0.00,26.13,28.71,31.56,14.27,48.65,1014.62,2025.00,3427.02,3043.09,3481.85,600.32,589.08,3.50,0000 0000 0000 0000 000000
2017-04-26 06:57:03,0.04,0.17,0.00,26.14,28.73,31.59,14.27,48.53,1014.57,2025.00,3426.04,3042.50,3480.99,599.57,588.18,3.55,0000 0000 0000 0000 000000
2017-04-26 07:02:04,0.03,0.17,0.00,26.18,28.76,31.60,14.22,48.52,1014.41,2024.99,3425.09,3041.93,3480.13,599.90,588.27,3.60,0000 0000 0000 0000 000000
2017-04-26 07:07:05,0.04,0.17,0.00,26.22,28.79,31.64,14.27,48.52,1014.34,2024.97,3424.14,3041.09,3479.30,599.83,588.10,3.65,0000 0000 0000 0000 000000
2017-04-26 07:12:07,0.04,0.17,0.00,26.24,28.81,31.65,14.26,48.44,1014.40,2024.87,3423.17,3040.47,3478.44,600.02,588.36,3.70,0000 0000 0000 0000 000000
2017-04-26 07:17:08,-0.01,0.17,0.00,26.27,28.84,31.68,14.24,48.52,1014.33,2024.42,3422.13,3039.87,3477.59,599.53,587.75,3.75,0000 0000 0000 0000 000000
2017-04-26 07:22:10,0.02,0.17,0.00,26.29,28.87,31.70,14.17,48.48,1014.32,2024.08,3421.10,3039.04,3476.73,599.61,587.71,3.80,0000 0000 0000 0000 000000
2017-04-26 07:27:11,0.05,0.18,0.00,26.33,28.90,31.74,14.28,48.64,1014.26,2024.02,3420.14,3038.23,3475.86,600.18,588.22,3.85,0000 0000 0000 0000 000000
2017-04-26 07:32:12,0.04,0.18,0.00,26.35,28.93,31.76,14.19,48.44,1014.20,2024.00,3419.10,3037.59,3474.96,600.02,587.87,3.90,0000 0000 0000 0000 000000
2017-04-26 07:37:13,0.03,0.18,0.00,26.37,28.96,31.79,14.23,48.55,1014.19,2024.00,3418.03,3036.90,3474.03,600.23,588.16,3.95,0000 0000 0000 0000 000000
2017-04-26 07:42:15,0.05,0.18,0.00,26.38,28.99,31.83,14.32,48.58,1014.19,2024.00,3416.96,3036.09,3473.15,600.25,588.22,4.00,0000 0000 0000 0000 000000
2017-04-26 07:47:16,0.05,0.19,0.00,26.37,29.01,31.85,14.31,48.63,1014.18,2023.99,3415.85,3035.36,3472.18,600.62,588.41,4.05,0000 0000 0000 0000 000000
2017-04-26 07:52:18,0.04,0.19,0.00,26.38,29.03,31.88,14.24,48.60,1014.18,2023.96,3414.78,3034.71,3471.35,599.65,587.67,4.10,0000 0000 0000 0000 000000
2017-04-26 07:57:19,0.01,0.19,0.00,26.43,29.05,31.89,14.13,48.49,1014.18,2023.70,3413.66,3033.91,3470.42,599.45,587.25,4.15,0000 0000 0000 0000 000000
2017-04-26 08:02:20,0.03,0.19,0.00,26.46,29.07,31.93,14.25,48.54,1014.18,2023.39,3412.69,3033.07,3469.55,599.72,587.46,4.20,0000 0000 0000 0000 000000
2017-04-26 08:07:22,0.02,0.19,0.00,26.49,29.10,31.95,14.30,48.53,1014.18,2023.12,3411.63,3032.44,3468.65,600.46,588.11,4.25,0000 0000 0000 0000 000000
2017-04-26 08:12:23,0.03,0.19,0.00,26.54,29.12,31.98,14.25,48.55,1014.18,2023.07,3410.62,3031.91,3467.83,599.45,587.12,4.30,0000 0000 0000 0000 000000
2017-04-26 08:17:24,0.04,0.20,0.00,26.59,29.14,31.98,14.22,48.57,1014.18,2023.01,3409.57,3031.09,3466.97,600.25,587.71,4.35,0000 0000 0000 0000 000000
2017-04-26 08:22:26,0.05,0.20,0.00,26.63,29.16,32.01,14.25,48.52,1014.18,2023.01,3408.57,3030.38,3466.09,599.79,587.25,4.40,0000 0000 0000 0000 000000
2017-04-26 08:27:27,0.05,0.20,0.00,26.65,29.19,32.01,14.27,48.44,1014.18,2023.00,3407.52,3029.67,3465.12,600.11,587.39,4.45,0000 0000 0000 0000 000000
2017-04-26 08:32:28,0.04,0.20,0.00,26.68,29.21,32.04,14.22,48.51,1014.18,2023.00,3406.47,3028.91,3464.17,599.71,587.03,4.50,0000 0000 0000 0000 000000
2017-04-26 08:37:30,0.05,0.21,0.00,26.70,29.24,32.06,14.20,48.40,1014.18,2022.98,3405.39,3028.08,3463.27,599.97,587.26,4.55,0000 0000 0000 0000 000000
2017-04-26 08:42:31,0.05,0.21,0.00,26.72,29.26,32.10,14.28,48.54,1014.18,2022.95,3404.36,3027.50,3462.49,600.43,587.69,4.60,0000 0000 0000 0000 000000
2017-04-26 08:47:33,0.01,0.21,0.00,26.75,29.28,32.12,14.22,48.47,1014.18,2022.79,3403.39,3026.81,3461.57,599.63,586.81,4.65,0000 0000 0000 0000 000000
2017-04-26 08:52:34,0.00,0.21,0.00,26.75,29.31,32.16,14.23,48.48,1014.17,2022.35,3402.31,3026.03,3460.65,600.55,587.71,4.70,0000 0000 0000 0000 000000
2017-04-26 08:57:35,0.04,0.21,0.00,26.78,29.33,32.18,14.12,48.48,1014.17,2022.07,3401.19,3025.23,3459.71,599.29,586.44,4.75,0000 0000 0000 0000 000000
2017-04-26 09:02:37,0.04,0.21,0.00,26.79,29.35,32.20,14.23,48.44,1014.15,2022.02,3400.09,3024.50,3458.80,600.29,587.38,4.80,0000 0000 0000 0000 000000
2017-04-26 09:07:38,0.03,0.22,0.00,26.79,29.38,32.21,14.16,48.33,1014.13,2022.00,3399.06,3023.93,3457.96,600.12,587.24,4.85,0000 0000 0000 0000 000000
2017-04-26 09:12:40,0.05,0.22,0.00,26.80,29.40,32.26,14.14,48.33,1014.10,2022.00,3397.98,3023.10,3457.05,599.39,586.43,4.90,0000 0000 0000 0000 000000
2017-04-26 09:17:41,0.05,0.22,0.00,26.82,29.42,32.29,14.29,48.37,1014.14,2022.00,3396.92,3022.27,3456.11,600.24,587.33,4.95,0000 0000 0000 0000 000000
2017-04-26 09:22:42,0.04,0.22,0.00,26.85,29.44,32.30,14.22,48.34,1014.15,2022.00,3395.92,3021.77,3455.45,600.27,587.04,5.00,0000 0000 0000 0000 000000
2017-04-26 09:27:44,0.04,0.23,0.00,26.85,29.46,32.33,14.31,48.38,1014.14,2021.98,3394.89,3021.02,3454.59,600.43,587.39,5.05,0000 0000 0000 0000 000000
2017-04-26 09:32:45,0.03,0.23,0.00,26.86,29.48,32.35,14.22,48.39,1014.17,2021.84,3393.78,3020.17,3453.57,599.80,586.83,5.10,0000 0000 0000 0000 000000
2017-04-26 09:37:46,0.01,0.23,0.00,26.89,29.50,32.40,14.19,48.39,1014.16,2021.31,3392.74,3019.31,3452.67,600.00,586.97,5.15,0000 0000 0000 0000 000000
2017-04-26 09:42:47,0.02,0.23,0.00,26.90,29.52,32.38,14.23,48.30,1014.17,2021.26,3391.72,3018.85,3451.85,599.94,586.89,5.20,0000 0000 0000 0000 000000
2017-04-26 09:47:49,0.03,0.23,0.00,26.90,29.54,32.40,14.20,48.37,1014.17,2021.06,3390.79,3018.03,3450.93,600.23,587.10,5.25,0000 0000 0000 0000 000000
2017-04-26 09:52:50,0.04,0.23,0.00,26.91,29.56,32.40,14.19,48.35,1014.17,2021.00,3389.87,3017.19,3450.04,599.94,586.86,5.30,0000 0000 0000 0000 000000
2017-04-26 09:57:51,0.05,0.24,0.00,26.92,29.58,32.43,14.23,48.42,1014.17,2021.00,3388.80,3016.63,3449.21,600.07,586.90,5.35,0000 0000 0000 0000 000000
2017-04-26 10:02:53,0.04,0.24,0.00,26.94,29.60,32.47,14.22,48.33,1014.17,2021.00,3387.74,3015.97,3448.20,600.08,586.97,5.40,0000 0000 0000 0000 000000
2017-04-26 10:07:54,0.05,0.24,0.00,26.93,29.62,32.47,14.19,48.37,1014.17,2021.00,3386.83,3015.20,3447.57,600.26,587.08,5.45,0000 0000 0000 0000 000000
2017-04-26 10:12:55,0.04,0.24,0.00,26.94,29.65,32.50,14.13,48.39,1014.17,2021.00,3385.89,3014.65,3446.75,599.61,586.40,5.50,0000 0000 0000 0000 000000
2017-04-26 10:17:56,0.03,0.25,0.00,26.94,29.67,32.50,14.20,48.49,1014.17,2020.99,3384.91,3013.95,3445.89,599.54,586.48,5.55,0000 0000 0000 0000 000000
2017-04-26 10:22:58,0.05,0.25,0.00,26.94,29.70,32.54,14.17,48.37,1014.16,2020.95,3383.74,3013.05,3444.86,599.94,586.70,5.60,0000 0000 0000 0000 000000
2017-04-26 10:27:59,0.07,0.25,0.00,26.92,29.71,32.57,14.20,48.33,1014.14,2020.78,3382.19,3011.88,3443.55,600.07,586.88,5.65,0000 0000 0000 0000 000000
2017-04-26 10:33:00,0.07,0.25,0.00,26.92,29.73,32.60,14.25,48.47,1014.12,2020.32,3379.89,3010.29,3441.65,599.91,586.71,5.71,0000 0000 0000 0000 000000
2017-04-26 10:38:01,0.14,0.26,0.00,26.92,29.75,32.62,14.22,48.36,1013.98,2020.13,3376.67,3008.11,3439.15,599.92,586.70,5.76,0000 0000 0000 0000 000000
2017-04-26 10:43:03,0.13,0.27,0.00,26.95,29.76,32.64,14.25,48.35,1013.80,2020.04,3373.54,3006.16,3436.76,600.23,586.80,5.81,0000 0000 0000 0000 000000
2017-04-26 10:48:04,0.13,0.27,0.00,26.97,29.77,32.65,14.15,48.33,1013.81,2020.01,3370.51,3004.16,3434.44,599.54,586.12,5.86,0000 0000 0000 0000 000000
2017-04-26 10:53:06,0.11,0.28,0.00,27.00,29.77,32.66,14.24,48.31,1013.77,2020.01,3367.85,3002.44,3432.43,599.84,586.25,5.91,0000 0000 0000 0000 000000
2017-04-26 10:58:07,0.13,0.29,0.00,27.07,29.79,32.67,14.22,48.37,1013.73,2020.00,3364.97,3000.60,3430.27,599.71,585.99,5.96,0000 0000 0000 0000 000000
2017-04-26 11:03:09,0.09,0.29,0.00,27.14,29.80,32.68,14.14,48.26,1013.70,2020.00,3362.49,2998.98,3428.41,599.73,585.91,6.01,0000 0000 0000 0000 000000
2017-04-26 11:08:10,0.10,0.30,0.00,27.18,29.80,32.67,14.19,48.26,1013.70,2020.00,3360.43,2997.65,3426.79,599.89,586.00,6.06,0000 0000 0000 0000 000000
2017-04-26 11:13:11,0.08,0.30,0.00,27.19,29.80,32.69,14.24,48.31,1013.70,2020.00,3358.42,2996.31,3425.25,600.46,586.49,6.11,0000 0000 0000 0000 000000
2017-04-26 11:18:13,0.10,0.31,0.00,27.15,29.82,32.69,14.15,48.23,1013.69,2020.00,3356.39,2994.90,3423.65,599.93,586.04,6.16,0000 0000 0000 0000 000000
2017-04-26 11:23:14,0.08,0.31,0.00,27.07,29.82,32.68,14.21,48.34,1013.69,2020.00,3354.44,2993.66,3422.12,600.13,586.39,6.21,0000 0000 0000 0000 000000
2017-04-26 11:28:15,0.08,0.31,0.00,26.97,29.82,32.67,14.21,48.36,1013.69,2020.00,3352.54,2992.45,3420.66,599.71,586.20,6.26,0000 0000 0000 0000 000000
2017-04-26 11:33:17,0.08,0.32,0.00,26.88,29.82,32.61,14.20,48.34,1013.69,2020.00,3350.44,2991.12,3419.12,599.99,586.65,6.31,0000 0000 0000 0000 000000
2017-04-26 11:38:18,0.10,0.32,0.00,26.82,29.81,32.60,14.29,48.42,1013.69,2020.00,3348.42,2989.74,3417.59,600.08,586.70,6.36,0000 0000 0000 0000 000000
2017-04-26 11:43:19,0.07,0.33,0.00,26.78,29.80,32.56,14.22,48.34,1013.69,2019.99,3346.81,2988.54,3416.13,599.89,586.72,6.41,0000 0000 0000 0000 000000
2017-04-26 11:48:21,0.07,0.33,0.00,26.72,29.80,32.55,14.25,48.42,1013.69,2019.99,3345.11,2987.39,3414.76,600.09,587.09,6.46,0000 0000 0000 0000 000000
2017-04-26 11:53:22,0.09,0.34,0.00,26.66,29.79,32.58,14.21,48.38,1013.66,2019.99,3343.16,2986.00,3413.19,599.85,586.86,6.51,0000 0000 0000 0000 000000
2017-04-26 11:58:23,0.11,0.34,0.00,26.60,29.77,32.55,14.24,48.51,1013.65,2019.99,3340.77,2984.33,3411.19,600.12,587.24,6.56,0000 0000 0000 0000 000000
2017-04-26 12:03:25,0.14,0.35,0.00,26.55,29.77,32.52,14.36,48.50,1013.64,2019.99,3338.23,2982.23,3408.83,600.42,587.62,6.61,0000 0000 0000 0000 000000
2017-04-26 12:08:26,0.21,0.36,0.00,26.51,29.75,32.56,14.27,48.40,1013.58,2019.99,3334.47,2979.32,3405.52,600.00,587.40,6.66,0000 0000 0000 0000 000000
2017-04-26 12:13:27,0.22,0.37,0.00,26.47,29.73,32.53,14.27,48.42,1013.48,2019.99,3329.87,2975.93,3401.69,599.96,587.39,6.71,0000 0000 0000 0000 000000
2017-04-26 12:18:28,0.19,0.38,0.00,26.44,29.71,32.48,14.27,48.42,1013.33,2019.99,3325.87,2972.76,3398.08,599.70,586.92,6.76,0000 0000 0000 0000 000000
2017-04-26 12:23:30,0.16,0.39,0.00,26.40,29.69,32.49,14.27,48.37,1013.24,2019.99,3322.71,2970.21,3395.16,600.15,587.45,6.81,0000 0000 0000 0000 000000
2017-04-26 12:28:31,0.13,0.40,0.00,26.38,29.66,32.46,14.28,48.35,1013.22,2019.99,3320.09,2967.98,3392.62,599.90,587.21,6.86,0000 0000 0000 0000 000000
2017-04-26 12:33:32,0.11,0.40,0.00,26.32,29.64,32.44,14.16,48.38,1013.20,2020.00,3317.77,2966.19,3390.65,599.63,587.14,6.91,0000 0000 0000 0000 000000
2017-04-26 12:38:34,0.10,0.41,0.00,26.29,29.61,32.44,14.32,48.34,1013.20,2020.01,3315.77,2964.62,3388.83,600.19,587.65,6.96,0000 0000 0000 0000 000000
2017-04-26 12:43:35,0.11,0.41,0.00,26.26,29.59,32.41,14.24,48.39,1013.20,2020.04,3313.68,2962.92,3386.88,600.02,587.57,7.01,0000 0000 0000 0000 000000
2017-04-26 12:48:37,0.10,0.42,0.00,26.23,29.56,32.45,14.23,48.43,1013.20,2020.06,3311.74,2961.37,3385.05,599.35,586.92,7.06,0000 0000 0000 0000 000000
2017-04-26 12:53:38,0.11,0.42,0.00,26.20,29.53,32.41,14.23,48.46,1013.18,2020.11,3309.73,2959.80,3383.30,599.63,587.13,7.11,0000 0000 0000 0000 000000
2017-04-26 12:58:39,0.11,0.43,0.00,26.16,29.51,32.31,14.23,48.37,1013.16,2020.37,3307.87,2958.47,3381.73,600.07,587.84,7.16,0000 0000 0000 0000 000000